RYR90RC LGKR-LIME

Flight info

Callsign RYR90RC
Flight time 1h 37m
Altitude 36000
Route OLGAT DCT OKIMO DCT ENOXA DCT GARGA DCT ANC DCT BOA DCT OGPUD DCT BETMU DCT OSBUL
Aircraft B738/M-SDE2E3FGHIRWXY/LB1

Departure

Time 2026-04-28 12:34
Airport Corfu Ioannis Kapodistrias International Airport (LGKR)

Arrival

Time 2026-04-28 14:12
Airport Il Caravaggio International Airport (LIME)
Time Latitude Longitude Altitude Speed Heading
2026-04-28 12:11 39.60705 19.91345 17 ft 0 kts 79°
2026-04-28 12:26 39.60705 19.91344 17 ft 1 kts 79°
2026-04-28 12:26 39.60700 19.91315 19 ft 4 kts 79°
2026-04-28 12:26 39.60695 19.91280 21 ft 4 kts 79°
2026-04-28 12:26 39.60691 19.91252 20 ft 4 kts 76°
2026-04-28 12:27 39.60680 19.91228 21 ft 4 kts 15°
2026-04-28 12:27 39.60656 19.91228 19 ft 4 kts 349°
2026-04-28 12:27 39.60642 19.91231 20 ft 0 kts 349°
2026-04-28 12:31 39.60643 19.91231 19 ft 1 kts 349°
2026-04-28 12:31 39.60666 19.91225 18 ft 5 kts 348°
2026-04-28 12:31 39.60699 19.91217 18 ft 5 kts 348°
2026-04-28 12:31 39.60732 19.91207 17 ft 5 kts 348°
2026-04-28 12:32 39.60786 19.91194 19 ft 11 kts 349°
2026-04-28 12:32 39.60869 19.91174 17 ft 12 kts 351°
2026-04-28 12:32 39.60953 19.91151 18 ft 13 kts 347°
2026-04-28 12:32 39.61050 19.91125 18 ft 15 kts 349°
2026-04-28 12:33 39.61150 19.91099 18 ft 13 kts 348°
2026-04-28 12:33 39.61185 19.91085 18 ft 4 kts 327°
2026-04-28 12:33 39.61223 19.90998 20 ft 13 kts 280°
2026-04-28 12:33 39.61150 19.90966 20 ft 16 kts 168°
2026-04-28 12:34 39.60790 19.91059 19 ft 89 kts 168°
2026-04-28 12:34 39.59959 19.91276 21 ft 152 kts 168°
2026-04-28 12:34 39.58832 19.91578 526 ft 160 kts 167°
2026-04-28 12:34 39.57785 19.91954 1344 ft 165 kts 147°
2026-04-28 12:35 39.57179 19.93239 1849 ft 183 kts 95°
2026-04-28 12:35 39.57550 19.94904 2197 ft 208 kts 53°
2026-04-28 12:35 39.58665 19.96130 2680 ft 217 kts 21°
2026-04-28 12:35 39.60148 19.96321 3256 ft 221 kts 343°
2026-04-28 12:36 39.61382 19.95165 3859 ft 226 kts 300°
2026-04-28 12:36 39.61703 19.93219 4632 ft 224 kts 258°
2026-04-28 12:36 39.61235 19.91296 5422 ft 227 kts 249°
2026-04-28 12:36 39.60667 19.89318 5898 ft 247 kts 247°
2026-04-28 12:37 39.59999 19.87137 6283 ft 270 kts 248°
2026-04-28 12:37 39.59344 19.84864 7019 ft 275 kts 249°
2026-04-28 12:37 39.58707 19.82503 7830 ft 279 kts 250°
2026-04-28 12:37 39.58092 19.80097 8643 ft 283 kts 251°
2026-04-28 12:38 39.57476 19.77636 9369 ft 291 kts 252°
2026-04-28 12:38 39.57036 19.75059 10125 ft 295 kts 270°
2026-04-28 12:38 39.57315 19.72392 10606 ft 310 kts 287°
2026-04-28 12:38 39.58225 19.69752 10804 ft 333 kts 303°
2026-04-28 12:39 39.59774 19.67454 11224 ft 345 kts 323°
2026-04-28 12:39 39.61888 19.65985 11951 ft 348 kts 342°
2026-04-28 12:39 39.64272 19.65535 12803 ft 348 kts
2026-04-28 12:39 39.66674 19.66067 13520 ft 354 kts 15°
2026-04-28 12:40 39.68988 19.67218 14181 ft 360 kts 25°
2026-04-28 12:40 39.71247 19.68648 14820 ft 363 kts 17°
2026-04-28 12:40 39.73740 19.69000 15488 ft 363 kts 353°
2026-04-28 12:40 39.76188 19.68237 16216 ft 363 kts 336°
2026-04-28 12:41 39.78339 19.66533 16877 ft 365 kts 317°
2026-04-28 12:41 39.80123 19.64169 17574 ft 367 kts 313°
2026-04-28 12:41 39.81849 19.61693 18235 ft 371 kts 311°
2026-04-28 12:41 39.83567 19.59180 18814 ft 374 kts 311°
2026-04-28 12:42 39.85304 19.56637 19363 ft 377 kts 311°
2026-04-28 12:42 39.87060 19.54080 19909 ft 380 kts 312°
2026-04-28 12:42 39.88836 19.51511 20464 ft 384 kts 312°
2026-04-28 12:42 39.90632 19.48923 21019 ft 386 kts 312°
2026-04-28 12:43 39.92440 19.46323 21558 ft 389 kts 312°
2026-04-28 12:43 39.94268 19.43698 22041 ft 393 kts 312°
2026-04-28 12:43 39.96117 19.41044 22533 ft 397 kts 312°
2026-04-28 12:43 39.97979 19.38369 23050 ft 400 kts 312°
2026-04-28 12:44 39.99856 19.35670 23546 ft 403 kts 312°
2026-04-28 12:44 40.01743 19.32953 23976 ft 406 kts 312°
2026-04-28 12:44 40.03644 19.30215 24419 ft 408 kts 312°
2026-04-28 12:44 40.05549 19.27469 24857 ft 409 kts 312°
2026-04-28 12:45 40.07464 19.24705 25279 ft 411 kts 312°
2026-04-28 12:45 40.09387 19.21927 25684 ft 414 kts 312°
2026-04-28 12:45 40.11322 19.19128 26081 ft 416 kts 312°
2026-04-28 12:45 40.13265 19.16316 26479 ft 418 kts 312°
2026-04-28 12:46 40.15217 19.13487 26863 ft 420 kts 312°
2026-04-28 12:46 40.17178 19.10643 27242 ft 422 kts 312°
2026-04-28 12:46 40.19152 19.07779 27575 ft 425 kts 312°
2026-04-28 12:46 40.21136 19.04897 27927 ft 428 kts 312°
2026-04-28 12:47 40.23105 19.02035 28293 ft 430 kts 312°
2026-04-28 12:47 40.25109 18.99124 28643 ft 431 kts 312°
2026-04-28 12:47 40.27165 18.96250 28970 ft 434 kts 314°
2026-04-28 12:47 40.29264 18.93399 29296 ft 436 kts 314°
2026-04-28 12:48 40.31385 18.90544 29621 ft 438 kts 314°
2026-04-28 12:48 40.33506 18.87685 30049 ft 437 kts 314°
2026-04-28 12:48 40.35615 18.84830 30502 ft 434 kts 314°
2026-04-28 12:48 40.37706 18.81986 30901 ft 433 kts 314°
2026-04-28 12:49 40.39794 18.79137 31228 ft 433 kts 314°
2026-04-28 12:49 40.41880 18.76281 31526 ft 434 kts 314°
2026-04-28 12:49 40.43967 18.73419 31843 ft 434 kts 314°
2026-04-28 12:49 40.46049 18.70561 32232 ft 432 kts 314°
2026-04-28 12:50 40.48119 18.67715 32643 ft 430 kts 314°
2026-04-28 12:50 40.50182 18.64877 32981 ft 429 kts 314°
2026-04-28 12:50 40.52246 18.62036 33292 ft 429 kts 314°
2026-04-28 12:50 40.54304 18.59200 33627 ft 429 kts 314°
2026-04-28 12:51 40.56360 18.56364 33984 ft 427 kts 314°
2026-04-28 12:51 40.58409 18.53535 34274 ft 427 kts 314°
2026-04-28 12:51 40.60451 18.50712 34579 ft 425 kts 314°
2026-04-28 12:51 40.62484 18.47900 34900 ft 423 kts 313°
2026-04-28 12:52 40.64509 18.45097 35204 ft 422 kts 313°
2026-04-28 12:52 40.66528 18.42299 35488 ft 421 kts 313°
2026-04-28 12:52 40.68540 18.39508 35734 ft 420 kts 313°
2026-04-28 12:52 40.70548 18.36719 36017 ft 419 kts 313°
2026-04-28 12:53 40.72558 18.33926 36062 ft 422 kts 313°
2026-04-28 12:53 40.76605 18.28293 36066 ft 422 kts 313°
2026-04-28 12:54 40.80601 18.22722 36063 ft 415 kts 313°
2026-04-28 12:54 40.84558 18.17193 36076 ft 414 kts 313°
2026-04-28 12:55 40.88478 18.11706 36066 ft 413 kts 313°
2026-04-28 12:55 40.92425 18.06173 36070 ft 413 kts 313°
2026-04-28 12:56 40.96365 18.00627 36071 ft 414 kts 313°
2026-04-28 12:56 41.00300 17.95061 36077 ft 414 kts 312°
2026-04-28 12:57 41.04238 17.89481 36074 ft 415 kts 312°
2026-04-28 12:57 41.08180 17.83886 36072 ft 415 kts 312°
2026-04-28 12:58 41.12121 17.78281 36068 ft 416 kts 312°
2026-04-28 12:58 41.16063 17.72666 36067 ft 416 kts 312°
2026-04-28 12:59 41.20005 17.67040 36069 ft 416 kts 312°
2026-04-28 12:59 41.23955 17.61421 36068 ft 416 kts 312°
2026-04-28 13:00 41.27909 17.55806 36071 ft 416 kts 312°
2026-04-28 13:00 41.31855 17.50187 36068 ft 415 kts 312°
2026-04-28 13:01 41.35124 17.45523 36074 ft 414 kts 312°
2026-04-28 13:01 41.39048 17.39913 36070 ft 414 kts 312°
2026-04-28 13:02 41.42963 17.34305 36071 ft 413 kts 312°
2026-04-28 13:02 41.46864 17.28705 36071 ft 412 kts 312°
2026-04-28 13:03 41.50757 17.23106 36069 ft 411 kts 312°
2026-04-28 13:03 41.54641 17.17511 36069 ft 411 kts 312°
2026-04-28 13:04 41.58517 17.11915 36073 ft 410 kts 312°
2026-04-28 13:04 41.62391 17.06313 36071 ft 410 kts 312°
2026-04-28 13:05 41.66259 17.00707 36068 ft 410 kts 312°
2026-04-28 13:05 41.70128 16.95091 36073 ft 411 kts 312°
2026-04-28 13:06 41.73974 16.89496 36071 ft 411 kts 312°
2026-04-28 13:06 41.77850 16.83848 36080 ft 412 kts 311°
2026-04-28 13:07 41.81730 16.78182 36069 ft 413 kts 311°
2026-04-28 13:07 41.85609 16.72507 36068 ft 413 kts 311°
2026-04-28 13:08 41.89486 16.66823 36059 ft 413 kts 311°
2026-04-28 13:08 41.93358 16.61137 36062 ft 412 kts 311°
2026-04-28 13:09 41.97223 16.55449 36062 ft 412 kts 311°
2026-04-28 13:09 42.01083 16.49759 36063 ft 412 kts 311°
2026-04-28 13:10 42.04937 16.44065 36073 ft 411 kts 311°
2026-04-28 13:10 42.08785 16.38368 36060 ft 411 kts 311°
2026-04-28 13:11 42.12624 16.32675 36056 ft 410 kts 311°
2026-04-28 13:11 42.16452 16.26986 36060 ft 409 kts 311°
2026-04-28 13:12 42.20269 16.21303 36062 ft 409 kts 311°
2026-04-28 13:12 42.24081 16.15617 36061 ft 408 kts 311°
2026-04-28 13:13 42.27763 16.09864 36055 ft 407 kts 306°
2026-04-28 13:13 42.31027 16.03621 36070 ft 407 kts 304°
2026-04-28 13:14 42.34231 15.97315 36055 ft 407 kts 304°
2026-04-28 13:14 42.37447 15.91031 36059 ft 406 kts 304°
2026-04-28 13:15 42.40675 15.84761 36060 ft 406 kts 304°
2026-04-28 13:15 42.43905 15.78495 36059 ft 406 kts 304°
2026-04-28 13:16 42.47131 15.72227 36064 ft 406 kts 304°
2026-04-28 13:16 42.50356 15.65949 36063 ft 406 kts 304°
2026-04-28 13:17 42.53576 15.59666 36055 ft 406 kts 304°
2026-04-28 13:17 42.56794 15.53374 36071 ft 406 kts 304°
2026-04-28 13:18 42.60008 15.47076 36057 ft 406 kts 304°
2026-04-28 13:18 42.63225 15.40760 36058 ft 406 kts 304°
2026-04-28 13:19 42.66437 15.34438 36054 ft 406 kts 304°
2026-04-28 13:19 42.69643 15.28118 36049 ft 406 kts 303°
2026-04-28 13:20 42.72845 15.21789 36053 ft 406 kts 303°
2026-04-28 13:20 42.76041 15.15461 36054 ft 406 kts 303°
2026-04-28 13:21 42.79234 15.09124 36055 ft 406 kts 303°
2026-04-28 13:21 42.82425 15.02779 36051 ft 406 kts 303°
2026-04-28 13:22 42.85611 14.96429 36062 ft 406 kts 303°
2026-04-28 13:22 42.88794 14.90072 36042 ft 406 kts 303°
2026-04-28 13:23 42.91973 14.83709 36054 ft 406 kts 303°
2026-04-28 13:23 42.95145 14.77347 36056 ft 406 kts 303°
2026-04-28 13:24 42.98293 14.71020 36057 ft 405 kts 303°
2026-04-28 13:24 43.01479 14.64602 36057 ft 405 kts 303°
2026-04-28 13:25 43.04638 14.58224 36055 ft 405 kts 303°
2026-04-28 13:25 43.07794 14.51839 36058 ft 405 kts 303°
2026-04-28 13:26 43.10945 14.45451 36068 ft 405 kts 303°
2026-04-28 13:26 43.14093 14.39054 36056 ft 405 kts 303°
2026-04-28 13:27 43.17238 14.32651 36052 ft 405 kts 303°
2026-04-28 13:27 43.20355 14.26289 36054 ft 405 kts 303°
2026-04-28 13:28 43.23487 14.19884 36048 ft 404 kts 303°
2026-04-28 13:28 43.26616 14.13472 36055 ft 404 kts 303°
2026-04-28 13:29 43.29737 14.07061 36058 ft 404 kts 303°
2026-04-28 13:29 43.32858 14.00638 36054 ft 404 kts 302°
2026-04-28 13:30 43.35972 13.94212 36052 ft 404 kts 302°
2026-04-28 13:30 43.39087 13.87773 36063 ft 404 kts 302°
2026-04-28 13:31 43.43747 13.78112 36048 ft 404 kts 302°
2026-04-28 13:31 43.46851 13.71659 36049 ft 404 kts 302°
2026-04-28 13:32 43.49951 13.65200 36050 ft 404 kts 302°
2026-04-28 13:32 43.53049 13.58731 36051 ft 405 kts 302°
2026-04-28 13:33 43.56144 13.52254 36048 ft 405 kts 302°
2026-04-28 13:33 43.59238 13.45749 36048 ft 405 kts 301°
2026-04-28 13:34 43.62232 13.39167 36021 ft 405 kts 301°
2026-04-28 13:34 43.65195 13.32550 36032 ft 405 kts 301°
2026-04-28 13:35 43.68160 13.25933 36024 ft 405 kts 301°
2026-04-28 13:35 43.71127 13.19318 36027 ft 405 kts 301°
2026-04-28 13:36 43.74089 13.12706 36028 ft 404 kts 301°
2026-04-28 13:36 43.77045 13.06095 36045 ft 403 kts 301°
2026-04-28 13:37 43.79992 12.99488 36040 ft 403 kts 301°
2026-04-28 13:37 43.82911 12.92928 36041 ft 403 kts 301°
2026-04-28 13:38 43.85847 12.86316 36034 ft 403 kts 300°
2026-04-28 13:38 43.88775 12.79707 36028 ft 403 kts 300°
2026-04-28 13:39 43.91697 12.73095 36034 ft 402 kts 300°
2026-04-28 13:39 43.94622 12.66464 36020 ft 403 kts 300°
2026-04-28 13:40 43.97540 12.59830 36022 ft 402 kts 300°
2026-04-28 13:40 44.00454 12.53193 36022 ft 402 kts 300°
2026-04-28 13:41 44.03361 12.46555 36026 ft 402 kts 300°
2026-04-28 13:41 44.06264 12.39911 36051 ft 402 kts 300°
2026-04-28 13:42 44.09161 12.33265 36051 ft 402 kts 300°
2026-04-28 13:42 44.12055 12.26610 36053 ft 402 kts 300°
2026-04-28 13:43 44.14949 12.19941 36047 ft 402 kts 300°
2026-04-28 13:43 44.17840 12.13263 36025 ft 402 kts 300°
2026-04-28 13:44 44.20728 12.06577 36023 ft 402 kts 300°
2026-04-28 13:44 44.23611 11.99887 36024 ft 403 kts 300°
2026-04-28 13:45 44.26487 11.93197 36024 ft 400 kts 300°
2026-04-28 13:45 44.27903 11.89897 35876 ft 394 kts 300°
2026-04-28 13:45 44.29298 11.86645 35636 ft 386 kts 300°
2026-04-28 13:46 44.30665 11.83453 35306 ft 382 kts 300°
2026-04-28 13:46 44.32024 11.80277 34963 ft 378 kts 299°
2026-04-28 13:46 44.33366 11.77135 34594 ft 376 kts 299°
2026-04-28 13:46 44.34700 11.74008 34249 ft 373 kts 299°
2026-04-28 13:47 44.36023 11.70904 33854 ft 371 kts 299°
2026-04-28 13:47 44.37338 11.67815 33439 ft 368 kts 299°
2026-04-28 13:47 44.38641 11.64752 33044 ft 365 kts 299°
2026-04-28 13:47 44.39933 11.61711 32673 ft 362 kts 299°
2026-04-28 13:48 44.41216 11.58689 32341 ft 360 kts 299°
2026-04-28 13:48 44.42056 11.56706 32090 ft 358 kts 299°
2026-04-28 13:48 44.43323 11.53716 31726 ft 356 kts 299°
2026-04-28 13:48 44.44984 11.49790 31261 ft 352 kts 299°
2026-04-28 13:49 44.45825 11.47800 31012 ft 351 kts 299°
2026-04-28 13:49 44.47465 11.43918 30567 ft 352 kts 299°
2026-04-28 13:49 44.48740 11.40889 30236 ft 371 kts 299°
2026-04-28 13:49 44.50087 11.37689 29817 ft 391 kts 299°
2026-04-28 13:50 44.51037 11.35434 29523 ft 404 kts 299°
2026-04-28 13:50 44.52495 11.31967 29076 ft 423 kts 299°
2026-04-28 13:50 44.53975 11.28313 28613 ft 439 kts 295°
2026-04-28 13:50 44.55212 11.24391 28260 ft 438 kts 291°
2026-04-28 13:51 44.56324 11.20425 27808 ft 436 kts 290°
2026-04-28 13:51 44.57400 11.16519 27359 ft 434 kts 290°
2026-04-28 13:51 44.58501 11.12580 26913 ft 433 kts 290°
2026-04-28 13:51 44.59617 11.08670 26469 ft 431 kts 291°
2026-04-28 13:52 44.60738 11.04785 26044 ft 429 kts 291°
2026-04-28 13:52 44.61856 11.00913 25609 ft 427 kts 291°
2026-04-28 13:52 44.62978 10.97060 25166 ft 425 kts 291°
2026-04-28 13:52 44.64097 10.93226 24728 ft 423 kts 291°
2026-04-28 13:53 44.65206 10.89422 24298 ft 421 kts 291°
2026-04-28 13:53 44.66310 10.85623 23864 ft 418 kts 290°
2026-04-28 13:53 44.67403 10.81854 23371 ft 415 kts 290°
2026-04-28 13:53 44.68473 10.78119 22906 ft 409 kts 290°
2026-04-28 13:54 44.69518 10.74438 22459 ft 402 kts 290°
2026-04-28 13:54 44.70545 10.70808 22024 ft 398 kts 290°
2026-04-28 13:54 44.71562 10.67207 21655 ft 396 kts 290°
2026-04-28 13:54 44.72579 10.63600 21236 ft 398 kts 290°
2026-04-28 13:55 44.73600 10.59978 20819 ft 398 kts 290°
2026-04-28 13:55 44.74616 10.56374 20394 ft 394 kts 290°
2026-04-28 13:55 44.75621 10.52802 19999 ft 392 kts 290°
2026-04-28 13:55 44.76620 10.49249 19590 ft 390 kts 290°
2026-04-28 13:56 44.77614 10.45710 19193 ft 388 kts 290°
2026-04-28 13:56 44.78601 10.42186 18797 ft 386 kts 290°
2026-04-28 13:56 44.79585 10.38673 18395 ft 385 kts 290°
2026-04-28 13:56 44.80563 10.35176 17935 ft 384 kts 290°
2026-04-28 13:57 44.81597 10.31647 17519 ft 401 kts 296°
2026-04-28 13:57 44.83296 10.28440 16997 ft 416 kts 315°
2026-04-28 13:57 44.85653 10.26040 16591 ft 419 kts 326°
2026-04-28 13:57 44.88136 10.23910 16153 ft 416 kts 326°
2026-04-28 13:58 44.90606 10.21795 15733 ft 414 kts 326°
2026-04-28 13:58 44.93025 10.19700 15330 ft 413 kts 326°
2026-04-28 13:58 44.95460 10.17563 14924 ft 411 kts 326°
2026-04-28 13:58 44.97876 10.15423 14511 ft 410 kts 326°
2026-04-28 13:59 45.00289 10.13279 14135 ft 408 kts 326°
2026-04-28 13:59 45.02672 10.11157 13947 ft 402 kts 326°
2026-04-28 13:59 45.05027 10.09060 13711 ft 401 kts 326°
2026-04-28 13:59 45.07400 10.06938 13233 ft 404 kts 326°
2026-04-28 14:00 45.09760 10.04822 12790 ft 397 kts 326°
2026-04-28 14:00 45.12083 10.02737 12392 ft 393 kts 326°
2026-04-28 14:00 45.14399 10.00656 12002 ft 398 kts 326°
2026-04-28 14:00 45.16737 9.98553 11596 ft 398 kts 326°
2026-04-28 14:01 45.19066 9.96458 11192 ft 394 kts 326°
2026-04-28 14:01 45.21368 9.94423 10964 ft 386 kts 329°
2026-04-28 14:01 45.23920 9.93192 10738 ft 393 kts 351°
2026-04-28 14:01 45.26661 9.93243 10377 ft 399 kts
2026-04-28 14:02 45.29185 9.94779 9948 ft 396 kts 36°
2026-04-28 14:02 45.30994 9.97669 9630 ft 392 kts 62°
2026-04-28 14:02 45.31764 10.01340 9327 ft 390 kts 87°
2026-04-28 14:02 45.31383 10.05091 9089 ft 376 kts 110°
2026-04-28 14:03 45.30735 10.08588 8567 ft 362 kts 92°
2026-04-28 14:03 45.31199 10.11974 8262 ft 344 kts 64°
2026-04-28 14:03 45.32581 10.14632 7996 ft 328 kts 44°
2026-04-28 14:03 45.34338 10.16582 7707 ft 315 kts 30°
2026-04-28 14:04 45.36286 10.17836 7433 ft 302 kts 16°
2026-04-28 14:04 45.38303 10.18344 7180 ft 289 kts
2026-04-28 14:04 45.40288 10.18137 6967 ft 284 kts 348°
2026-04-28 14:04 45.42156 10.17371 6719 ft 284 kts 333°
2026-04-28 14:05 45.43797 10.15907 6461 ft 274 kts 322°
2026-04-28 14:05 45.45295 10.14298 6220 ft 266 kts 320°
2026-04-28 14:05 45.46756 10.12690 5973 ft 257 kts 321°
2026-04-28 14:05 45.48126 10.11179 5756 ft 248 kts 321°
2026-04-28 14:06 45.49468 10.09696 5551 ft 241 kts 321°
2026-04-28 14:06 45.50781 10.08247 5363 ft 237 kts 321°
2026-04-28 14:06 45.52098 10.06795 5190 ft 241 kts 322°
2026-04-28 14:06 45.53435 10.05320 4992 ft 245 kts 322°
2026-04-28 14:07 45.54798 10.03818 4780 ft 243 kts 322°
2026-04-28 14:07 45.56112 10.02370 4570 ft 241 kts 322°
2026-04-28 14:07 45.57447 10.00898 4370 ft 238 kts 322°
2026-04-28 14:07 45.58749 9.99463 4182 ft 235 kts 322°
2026-04-28 14:08 45.60034 9.98044 3973 ft 230 kts 322°
2026-04-28 14:08 45.61263 9.96689 3785 ft 222 kts 322°
2026-04-28 14:08 45.62304 9.95148 3569 ft 213 kts 293°
2026-04-28 14:08 45.62588 9.93173 3500 ft 200 kts 277°
2026-04-28 14:09 45.62975 9.91284 3363 ft 197 kts 291°
2026-04-28 14:09 45.63380 9.89396 3162 ft 201 kts 283°
2026-04-28 14:09 45.63699 9.87485 2898 ft 195 kts 283°
2026-04-28 14:09 45.64028 9.85646 2644 ft 188 kts 284°
2026-04-28 14:10 45.64353 9.83875 2404 ft 180 kts 284°
2026-04-28 14:10 45.64666 9.82175 2186 ft 176 kts 284°
2026-04-28 14:10 45.64981 9.80462 1945 ft 179 kts 284°
2026-04-28 14:10 45.65284 9.78815 1715 ft 166 kts 284°
2026-04-28 14:11 45.65571 9.77261 1498 ft 159 kts 284°
2026-04-28 14:11 45.65854 9.75727 1283 ft 159 kts 283°
2026-04-28 14:11 45.66132 9.74201 1082 ft 158 kts 284°
2026-04-28 14:11 45.66414 9.72672 849 ft 161 kts 284°
2026-04-28 14:12 45.66695 9.71170 786 ft 140 kts 284°
2026-04-28 14:12 45.66891 9.70122 786 ft 79 kts 285°
2026-04-28 14:12 45.66983 9.69631 786 ft 34 kts 284°
2026-04-28 14:12 45.67039 9.69315 786 ft 32 kts 283°
2026-04-28 14:13 45.67045 9.69038 787 ft 15 kts 240°
2026-04-28 14:13 45.66956 9.68983 786 ft 14 kts 183°
2026-04-28 14:13 45.66905 9.69081 786 ft 13 kts 97°
2026-04-28 14:13 45.66888 9.69208 786 ft 13 kts 104°
2026-04-28 14:14 45.66867 9.69328 786 ft 12 kts 104°
2026-04-28 14:14 45.66847 9.69441 786 ft 12 kts 105°
2026-04-28 14:14 45.66843 9.69460 786 ft 0 kts 105°
2026-04-28 14:15 45.66843 9.69461 786 ft 2 kts 105°
2026-04-28 14:15 45.66825 9.69557 786 ft 15 kts 104°
2026-04-28 14:15 45.66778 9.69609 786 ft 9 kts 188°
2026-04-28 14:16 45.66725 9.69589 786 ft 2 kts 194°
2026-04-28 14:16 45.66724 9.69589 786 ft 0 kts 195°
2026-04-28 14:16 45.66723 9.69589 786 ft 0 kts 195°